Location: Brunembert
(50.7122°N, 1.8935°E)
Time: 04:12:57
(UTC+00:00)

FALCON 9 DEB - Pass Details

Date: 22 April 2021
Orbit: 364 x 384 km, 53.0° (Epoch: 06 May)

Event Time Altitude Azimuth Distance (km) Brightness Sun altitude
Rises 20:41:26 0° 234° (SW) 2,196 6.9 -14.6°
Reaches altitude 10° 20:43:29 10° 229° (SW) 1,352 5.7 -14.8°
Maximum altitude 20:46:24 50° 152° (SSE) 474 2.9 -15.1°
Enters shadow 20:47:12 37° 103° (ESE) 587 3.3 -15.2°
